#timestamp,LO_Frequency,Hit,StdDev 
1541282445.3,286046999.0,E
1541282455.2,286046998.6,N
1541282475.0,286047000.1,P
1541282475.9,286047000.1,N
1541282495.8,286047001.8,N
1541282515.6,286047003.9,Y
1541282535.4,286047005.5,P
1541282555.3,286047007.1,N
1541282575.1,286047005.2,N
1541282595.9,286047002.9,N
1541282615.7,286047005.0,N
1541282635.5,286047009.1,Y
1541282655.4,286047003.1,P
1541282675.2,286047005.3,P
1541282695.1,286047004.8,P
1541282696.0,286047004.8,Y
1541282715.8,286046999.8,P
1541282735.6,286047002.1,N
1541282755.5,286047003.1,N
1541282775.3,286047003.6,N
1541282795.2,286047005.5,Y
1541282815.9,286047005.5,P
1541282835.7,286047004.6,P
1541282855.6,286047007.8,P
1541282875.4,286047010.7,Y
1541282895.2,286047005.9,P
1541282915.1,286047005.5,P
1541282916.0,286047005.5,P
1541282935.8,286047004.6,Y
1541282955.7,286047002.1,P
1541282975.5,286047001.6,N
1541282995.3,286047002.4,N
1541283015.2,286047001.1,N
1541283035.0,286046998.4,N
1541283035.9,286046998.4,N
1541283055.8,286046999.3,N
1541283075.6,286046999.3,N
1541283095.4,286046998.4,N
1541283115.3,286046998.6,N
1541283135.1,286047000.0,N
1541283136.0,286047000.0,N
1541283155.8,286047000.1,N
1541283175.7,286047002.7,N
1541283195.5,286047001.3,N
1541283215.3,286047001.7,N
1541283235.2,286047001.8,N
1541283255.0,286047001.4,N
1541283255.9,286047001.4,N
1541283275.8,286047002.9,N
1541283295.6,286047003.0,N
1541283315.4,286047004.3,N
1541283335.3,286047001.6,N
1541283355.1,286047002.4,N
1541283375.8,286047001.0,N
1541283395.7,286046999.3,N
1541283415.5,286046995.5,N
1541283435.4,286046994.1,N
1541283455.2,286046994.2,N
1541283475.0,286046994.3,N
1541283475.9,286046994.3,N
1541283495.8,286046994.3,N
1541283515.6,286046992.6,N
1541283535.4,286046992.3,N
1541283555.3,286046990.5,N
1541283575.1,286046991.5,N
1541283595.9,286046991.1,N
1541283615.7,286046990.9,N
1541283635.5,286046991.1,N
1541283655.4,286046989.0,N
1541283675.2,286046992.8,N
1541283695.0,286046990.1,N
1541283695.9,286046990.1,N
1541283715.8,286046992.6,N
1541283735.6,286046988.6,N
1541283755.5,286046989.8,N
1541283775.3,286046983.9,Y
1541283795.1,286046987.8,P
1541283815.9,286046986.6,P
1541283835.7,286046982.7,P
1541283855.5,286046982.9,Y
1541283875.4,286046997.2,P
1541283895.2,286046996.8,N
1541283915.1,286046996.7,N
1541283916.0,286046996.7,N
1541283935.8,286046997.3,N
1541283955.6,286046997.8,N
1541283975.5,286046995.1,N
1541283995.3,286046997.4,N
1541284015.1,286046998.9,N
1541284035.9,286047000.8,N
1541284055.7,286047000.2,N
1541284075.6,286047000.2,N
1541284095.4,286046999.7,N
1541284115.2,286047002.5,N
1541284135.1,286047002.0,N
1541284136.0,286047002.0,N
1541284155.8,286047001.7,N
1541284175.6,286047000.6,N
1541284195.5,286046998.1,N
1541284215.3,286046997.0,N
1541284235.2,286046996.9,N
1541284255.9,286046998.3,N
1541284275.7,286046999.5,N
1541284295.6,286046998.7,N
1541284315.4,286047001.0,N
1541284335.2,286047001.1,N
1541284355.1,286046998.7,N
1541284356.0,286046998.7,N
1541284375.8,286046996.5,N
1541284395.7,286047000.9,N
1541284415.5,286047000.5,N
1541284435.3,286046998.6,N
1541284455.2,286046997.6,N
1541284475.9,286046997.4,N
1541284495.7,286046999.6,N
1541284515.6,286046997.6,N
1541284535.4,286046998.0,N
1541284555.3,286046997.5,N
1541284575.1,286046997.4,N
1541284576.0,286046997.4,N
1541284595.8,286046999.2,N
1541284615.7,286047000.4,N
1541284635.5,286046999.8,N
1541284655.3,286047002.6,N
1541284675.2,286047000.1,N
1541284695.0,286046999.7,N
1541284695.9,286046999.7,N
1541284715.8,286047004.0,N
1541284735.6,286047001.6,N
1541284755.4,286047002.1,N
1541284775.3,286047000.2,N
1541284795.1,286047000.1,N
1541284815.9,286047004.4,N
1541284835.7,286047004.0,N
1541284855.5,286047002.0,N
1541284875.4,286047000.0,N
1541284895.2,286047000.6,N
1541284915.0,286046998.6,N
1541284915.9,286046998.6,N
1541284935.8,286047002.8,N
1541284955.6,286046998.6,N
1541284975.5,286046997.0,N
1541284995.3,286046997.4,N
1541285015.1,286046998.0,N
1541285035.9,286046995.6,N
1541285055.7,286046996.1,N
1541285075.5,286046995.4,N
1541285095.4,286046996.4,N
1541285115.2,286046996.4,N
1541285135.1,286046995.6,N
1541285136.0,286046995.6,N
1541285155.8,286046994.5,N
1541285175.6,286046991.9,N
1541285195.5,286046993.0,N
1541285215.3,286046990.5,N
1541285235.1,286046992.0,N
1541285255.9,286046992.4,N
1541285275.7,286046990.3,N
1541285295.6,286046990.2,N
1541285315.4,286046989.0,N
1541285335.2,286046989.3,N
1541285355.1,286046987.7,N
1541285356.0,286046987.7,N
1541285375.8,286046985.7,Y
1541285395.6,286046990.5,P
1541285415.5,286046991.3,P
1541285435.3,286046990.5,P
1541285455.2,286046990.7,Y
1541285475.9,286047000.3,P
1541285495.7,286046999.7,N
1541285515.6,286046998.7,N
1541285535.4,286046998.6,N
1541285555.2,286046998.1,N
1541285575.1,286046999.5,N
1541285576.0,286046999.5,N
1541285595.8,286046999.3,N
1541285615.7,286046998.7,N
1541285635.5,286046997.6,N
1541285655.3,286046997.8,N
1541285675.2,286046995.0,N
1541285695.0,286046995.1,N
1541285695.9,286046995.1,N
1541285715.7,286046995.0,N
1541285735.6,286046996.8,N
1541285755.4,286046999.2,N
1541285775.3,286046998.2,N
1541285795.1,286047000.1,N
1541285796.0,286047000.1,N
1541285815.8,286046999.7,N
1541285835.7,286047001.2,N
1541285855.5,286046998.3,N
1541285875.3,286046996.5,N
1541285895.2,286046999.2,N
1541285915.0,286046999.1,N
1541285915.9,286046999.1,N
1541285935.8,286046996.9,N
1541285955.6,286046997.6,N
1541285975.4,286046995.7,N
1541285995.3,286046995.6,N
